SIA11 KLAX-RJAA

Flight info

Callsign SIA11
Flight time N/A
Altitude 32000
Route SUMMR2 MCKEY DCT LIBBO DCT BRINY DCT BOARS DCT AMAKR DCT REDWD/N0482F340 DCT UNVER DCT 42N130W 48N140W 52N150W 55N160W/N0486F360 56N170W DCT RULOY G469 NYMPH/N0489F370 R220 NIPPI/N0483F380 R220 NANAC Y810 OLDIV Y809 SUPOK
Aircraft A346/H-SDE2E3FGHIJ3J4J5M1RWXY/LB1D1

Departure

Time 2026-04-25 02:03
Airport Los Angeles International Airport (KLAX)

Arrival

Time N/A
Airport Narita International Airport (RJAA)
Time Latitude Longitude Altitude Speed Heading
2026-04-25 01:31 33.94020 -118.41081 134 ft 0 kts 83°
2026-04-25 01:47 33.94019 -118.41082 134 ft 0 kts 83°
2026-04-25 01:52 33.94019 -118.41083 134 ft 0 kts 83°
2026-04-25 01:52 33.94018 -118.41098 134 ft 2 kts 83°
2026-04-25 01:53 33.94016 -118.41116 134 ft 2 kts 83°
2026-04-25 01:53 33.94014 -118.41134 133 ft 2 kts 83°
2026-04-25 01:53 33.94013 -118.41145 133 ft 2 kts 80°
2026-04-25 01:53 33.94008 -118.41162 133 ft 2 kts 52°
2026-04-25 01:54 33.93996 -118.41175 133 ft 2 kts 27°
2026-04-25 01:54 33.93980 -118.41180 133 ft 2 kts
2026-04-25 01:54 33.93972 -118.41180 133 ft 0 kts 353°
2026-04-25 01:57 33.94075 -118.41195 132 ft 16 kts 354°
2026-04-25 01:57 33.94183 -118.41209 132 ft 6 kts 354°
2026-04-25 01:57 33.94191 -118.41209 132 ft 3 kts 354°
2026-04-25 01:58 33.94264 -118.41220 131 ft 14 kts 353°
2026-04-25 01:58 33.94374 -118.41238 129 ft 16 kts 352°
2026-04-25 01:58 33.94484 -118.41267 129 ft 15 kts 342°
2026-04-25 01:58 33.94591 -118.41281 129 ft 15 kts 357°
2026-04-25 01:59 33.94704 -118.41290 131 ft 15 kts 356°
2026-04-25 01:59 33.94786 -118.41246 132 ft 9 kts 48°
2026-04-25 01:59 33.94812 -118.41123 133 ft 20 kts 82°
2026-04-25 01:59 33.94833 -118.40926 133 ft 24 kts 83°
2026-04-25 02:00 33.94853 -118.40713 130 ft 25 kts 83°
2026-04-25 02:00 33.94875 -118.40494 129 ft 25 kts 83°
2026-04-25 02:00 33.94899 -118.40269 127 ft 26 kts 83°
2026-04-25 02:00 33.94921 -118.40050 124 ft 22 kts 83°
2026-04-25 02:01 33.94941 -118.39955 123 ft 0 kts 53°
2026-04-25 02:02 33.94942 -118.39954 123 ft 0 kts 53°
2026-04-25 02:02 33.94990 -118.39925 123 ft 15 kts
2026-04-25 02:02 33.95033 -118.40031 123 ft 16 kts 266°
2026-04-25 02:02 33.95019 -118.40179 126 ft 28 kts 263°
2026-04-25 02:03 33.94965 -118.40685 130 ft 92 kts 263°
2026-04-25 02:03 33.94859 -118.41691 129 ft 146 kts 264°
2026-04-25 02:03 33.94720 -118.43061 260 ft 172 kts 263°
2026-04-25 02:03 33.94586 -118.44439 810 ft 164 kts 263°
2026-04-25 02:04 33.94440 -118.45872 1086 ft 177 kts 263°
2026-04-25 02:04 33.94343 -118.47383 1465 ft 185 kts 267°
2026-04-25 02:04 33.94294 -118.48921 1937 ft 189 kts 268°
2026-04-25 02:04 33.94240 -118.50553 2183 ft 198 kts 266°
2026-04-25 02:05 33.94118 -118.52271 2416 ft 210 kts 264°
2026-04-25 02:05 33.93980 -118.54052 2693 ft 220 kts 264°
2026-04-25 02:05 33.93829 -118.55959 2916 ft 238 kts 264°
2026-04-25 02:05 33.93666 -118.58038 3218 ft 254 kts 264°
2026-04-25 02:06 33.93494 -118.60218 3578 ft 267 kts 264°
2026-04-25 02:06 33.93320 -118.62449 4168 ft 270 kts 264°
2026-04-25 02:06 33.93149 -118.64669 4813 ft 271 kts 264°
2026-04-25 02:06 33.92973 -118.66975 5431 ft 274 kts 262°
2026-04-25 02:07 33.92798 -118.69258 5997 ft 278 kts 262°
2026-04-25 02:07 33.92615 -118.71600 6545 ft 283 kts 261°
2026-04-25 02:07 33.92428 -118.73973 7073 ft 288 kts 261°
2026-04-25 02:07 33.92239 -118.76369 7585 ft 292 kts 261°
2026-04-25 02:08 33.92044 -118.78827 8092 ft 297 kts 261°
2026-04-25 02:08 33.91848 -118.81312 8590 ft 302 kts 261°
2026-04-25 02:08 33.91727 -118.83858 9090 ft 308 kts 266°
2026-04-25 02:08 33.91767 -118.86488 9596 ft 313 kts 269°
2026-04-25 02:09 33.91849 -118.89120 10088 ft 317 kts 270°
2026-04-25 02:09 33.91935 -118.91810 10435 ft 326 kts 270°
2026-04-25 02:09 33.92021 -118.94591 10671 ft 339 kts 271°
2026-04-25 02:09 33.92108 -118.97478 10908 ft 352 kts 271°
2026-04-25 02:10 33.92341 -119.00497 11134 ft 365 kts 282°
2026-04-25 02:10 33.93140 -119.03458 11359 ft 374 kts 298°
2026-04-25 02:10 33.94447 -119.06199 11605 ft 384 kts 304°
2026-04-25 02:10 33.95931 -119.08972 11983 ft 392 kts 305°
2026-04-25 02:11 33.97424 -119.11768 12488 ft 395 kts 304°
2026-04-25 02:11 33.98901 -119.14585 13022 ft 398 kts 304°
2026-04-25 02:11 34.00474 -119.17287 13517 ft 400 kts 311°
2026-04-25 02:11 34.02383 -119.19719 14010 ft 401 kts 320°
2026-04-25 02:12 34.04562 -119.21805 14496 ft 402 kts 326°
2026-04-25 02:12 34.06836 -119.23757 14995 ft 406 kts 327°
2026-04-25 02:12 34.09175 -119.25732 15521 ft 409 kts 327°
2026-04-25 02:12 34.11529 -119.27729 16037 ft 412 kts 327°
2026-04-25 02:13 34.13921 -119.29769 16543 ft 415 kts 327°
2026-04-25 02:13 34.16273 -119.31786 17031 ft 419 kts 327°
2026-04-25 02:13 34.18652 -119.33831 17510 ft 422 kts 327°
2026-04-25 02:13 34.21018 -119.35870 17978 ft 425 kts 326°
2026-04-25 02:14 34.23437 -119.37956 18450 ft 428 kts 326°
2026-04-25 02:14 34.25861 -119.40050 18899 ft 431 kts 326°
2026-04-25 02:14 34.28314 -119.42172 19336 ft 434 kts 326°
2026-04-25 02:14 34.30771 -119.44297 19769 ft 437 kts 326°
2026-04-25 02:15 34.33237 -119.46431 20193 ft 440 kts 326°
2026-04-25 02:15 34.35714 -119.48577 20609 ft 443 kts 326°
2026-04-25 02:15 34.38221 -119.50772 21020 ft 447 kts 324°
2026-04-25 02:15 34.40636 -119.53172 21418 ft 451 kts 320°
2026-04-25 02:16 34.42873 -119.55793 21809 ft 454 kts 315°
2026-04-25 02:16 34.44993 -119.58668 22198 ft 457 kts 312°
2026-04-25 02:16 34.47076 -119.61623 22590 ft 460 kts 311°
2026-04-25 02:16 34.49121 -119.64552 22971 ft 463 kts 311°
2026-04-25 02:17 34.51223 -119.67560 23333 ft 465 kts 311°
2026-04-25 02:17 34.53311 -119.70544 23693 ft 468 kts 311°
2026-04-25 02:17 34.55422 -119.73556 24045 ft 470 kts 311°
2026-04-25 02:17 34.57556 -119.76601 24399 ft 473 kts 311°
2026-04-25 02:18 34.59659 -119.79599 24746 ft 475 kts 311°
2026-04-25 02:18 34.61812 -119.82672 25080 ft 477 kts 311°
2026-04-25 02:18 34.63971 -119.85754 25415 ft 480 kts 311°
2026-04-25 02:18 34.66146 -119.88862 25744 ft 482 kts 311°
2026-04-25 02:19 34.68329 -119.91985 26076 ft 484 kts 311°
2026-04-25 02:19 34.70506 -119.95100 26388 ft 486 kts 310°
2026-04-25 02:19 34.72718 -119.98270 26697 ft 488 kts 310°
2026-04-25 02:19 34.74929 -120.01440 26993 ft 491 kts 310°
2026-04-25 02:20 34.77128 -120.04595 27289 ft 493 kts 310°
2026-04-25 02:20 34.79388 -120.07842 27599 ft 494 kts 310°
2026-04-25 02:20 34.81660 -120.11108 27891 ft 496 kts 310°
2026-04-25 02:20 34.83882 -120.14306 28211 ft 497 kts 310°
2026-04-25 02:21 34.86110 -120.17515 28611 ft 496 kts 310°
2026-04-25 02:21 34.88330 -120.20714 29028 ft 494 kts 310°
2026-04-25 02:21 34.90539 -120.23904 29423 ft 493 kts 310°
2026-04-25 02:21 34.92777 -120.27141 29767 ft 493 kts 311°
2026-04-25 02:22 34.94981 -120.30333 30095 ft 493 kts 311°
2026-04-25 02:22 34.97215 -120.33569 30402 ft 493 kts 311°
2026-04-25 02:22 34.99439 -120.36794 30670 ft 494 kts 311°
2026-04-25 02:22 35.01677 -120.40038 30938 ft 494 kts 312°
2026-04-25 02:23 35.03946 -120.43333 31216 ft 494 kts 312°
2026-04-25 02:23 35.06175 -120.46569 31492 ft 494 kts 312°
2026-04-25 02:23 35.08408 -120.49810 31731 ft 495 kts 312°
2026-04-25 02:23 35.10617 -120.53022 31927 ft 496 kts 313°
2026-04-25 02:24 35.12847 -120.56265 31990 ft 500 kts 312°
2026-04-25 02:24 35.17344 -120.62818 31996 ft 509 kts 313°
2026-04-25 02:25 35.21914 -120.69492 31992 ft 517 kts 312°
2026-04-25 02:25 35.26563 -120.76300 31994 ft 524 kts 312°
2026-04-25 02:25 35.28866 -120.79673 32108 ft 523 kts 312°
2026-04-25 02:26 35.31191 -120.83077 32379 ft 520 kts 312°
2026-04-25 02:26 35.33504 -120.86466 32705 ft 515 kts 312°
2026-04-25 02:26 35.35770 -120.89800 32768 ft 501 kts 312°
2026-04-25 02:27 35.40197 -120.96343 32462 ft 497 kts 312°
2026-04-25 02:27 35.42423 -120.99629 32211 ft 497 kts 312°
2026-04-25 02:27 35.44617 -121.02872 32009 ft 497 kts 312°
2026-04-25 02:28 35.49105 -121.09500 31987 ft 497 kts 313°